Regional Weather Roundup
Issued by NWS

Home | Current Version | Previous Version | Graphics & Text | Print | Product List | Glossary On
Versions: 1 2 3 4 5 6 7 8 9 10 11 12 13 14 15 16 17 18 19 20 21 22 23 24 25 26 27 28 29 30 31 32 33 34 35 36 37 38 39 40 41 42 43 44 45 46 47 48 49 50
000
ASUS43 KLOT 290808
RWRIL

ILLINOIS REGIONAL WEATHER ROUNDUP
NATIONAL WEATHER SERVICE CHICAGO/ROMEOVILLE IL
300 AM CDT WED JUL 29 2015

NOTE: "FAIR" INDICATES FEW OR NO CLOUDS BELOW 12,000 FEET WITH NO
SIGNIFICANT WEATHER AND/OR OBSTRUCTIONS TO VISIBILITY.

* THESE STATIONS ARE NOT UNDER NWS QUALITY CONTROL. THEY ALSO MAY NOT
  REPORT WEATHER SUCH AS PRECIPITATION OR FOG.

ILZ001-002-007-009-015-016-024-290900-
NORTHWEST ILLINOIS

CITY           SKY/WX    TMP DP  RH WIND       PRES   REMARKS
MOLINE         CLOUDY    77  72  84 W8        29.95R
STERLING*      CLOUDY    73  72  94 SE3       29.93S
SAVANNA*       CLOUDY    76  74  94 CALM      29.94R FOG
$$

ILZ003-004-008-010-011-017-018-290900-
NORTH CENTRAL ILLINOIS

CITY           SKY/WX    TMP DP  RH WIND       PRES   REMARKS
ROCKFORD       CLOUDY    74  70  87 SW5       29.95R
FREEPORT*      CLOUDY    72  70  96 CALM      29.96S
ROCHELLE*      CLOUDY    71  70  98 CALM      29.95R
DE KALB*       CLOUDY    72  70  93 SW7       29.96R
PERU*          LGT RAIN  74  72  94 S5        29.95R
$$

ILZ005-006-012>014-019>023-290900-
NORTHEAST ILLINOIS

CITY           SKY/WX    TMP DP  RH WIND       PRES   REMARKS
CHICAGO-OHARE  CLOUDY    78  71  79 SW6       29.92R HX  80
CHICAGO-MIDWAY CLOUDY    80  71  74 SW8       29.92R THUNDER HX  84
AURORA         CLOUDY    74  70  87 SW5       29.94S
LANSING*       CLOUDY    79  71  75 NW5       29.93R HX  82
JOLIET*        LGT RAIN  75  74  95 SW5       29.93F
WAUKEGAN       CLOUDY    76  73  91 SW5       29.91S
DUPAGE AIRPORT CLOUDY    74  71  91 S7        29.91F
KANKAKEE*      TSTM      76  72  88 W12G17    29.96S
WHEELING       CLOUDY    79  72  79 SW6       29.93R HX  82
MORRIS*        CLOUDY    73  72  95 SW7       29.93R
ROMEOVILLE*    CLOUDY    73  72  96 SW8       29.92F
NORTHERLY ISL    N/A     76  72  87 SE5         N/A
$$

LMZ740>746-290900-
SOUTHERN LAKE MICHIGAN

STATION/POSITION SKY/WX   TEMP    WIND        PRES    VSBY  WAVE
                          AIR SEA DIR/SP/G                  HT/PER
                          (F)     (DEG/KT/KT) (MB)    (MI)  (FT/S)
HARRISON CRIB              77     160/  5/  7   N/A
BURNHAM HARBOR             76     150/  7/  9   N/A
CALUMET HARBOR             81     160/  4/  6   N/A
BURNS HARBOR               78     190/  7/  9 1013.5F
MICHIGAN CITY              80     150/  8/ 11   N/A
MICHIGAN CITY 6N           76 75  190/  6/  8   N/A           0
ST. JOSEPH                 76 75  210/  8/ 10   N/A           1
$$

ILZ025>027-034>036-040-047-049-050-058-095>099-290900-
WEST-CENTRAL ILLINOIS

CITY           SKY/WX    TMP DP  RH WIND       PRES   REMARKS
QUINCY         CLOUDY    76  73  91 NW5       29.96R
GALESBURG*     CLOUDY    78  76  96 W3        29.95R FOG
MACOMB*        CLOUDY    76  76  99 W6        29.95F FOG
JACKSONVILLE*  PTCLDY    81  77  89 S5        29.93F HX  88
PITTSFIELD*    MOCLDY    82  77  83 CALM      29.95F HX  91
$$

ILZ028>032-037-038-041>044-048-051>054-059>061-290900-
CENTRAL ILLINOIS

CITY           SKY/WX    TMP DP  RH WIND       PRES   REMARKS
PONTIAC        TSTM      74  73  99 SW13G18   29.98S
BLOOMINGTON    TSTM      73  73 100 NE9       29.99F FOG
DECATUR        MOCLDY    76  72  87 CALM      29.95S
PEORIA         MOCLDY    76  72  87 S6        29.93S
LACON*         CLOUDY    73  70  92 SE5       29.93F
LINCOLN*       PTCLDY    77  74  91 N6        29.95R THUNDER
SPRINGFIELD    PTCLDY    80  75  84 SW3       29.94F HX  85
TAYLORVILLE    MOCLDY    75  73  94 SW3       29.95S
$$

ILZ033-039-045-046-055>057-062-063-290900-
EAST-CENTRAL ILLINOIS

CITY           SKY/WX    TMP DP  RH WIND       PRES   REMARKS
CHAMPAIGN      MOCLDY    74  71  91 SW5       29.97R
DANVILLE*      MOCLDY    72  72  99 CALM      29.93S FOG
RANTOUL*       MOCLDY    76  74  93 CALM      29.96R
MATTOON        MOCLDY    76  72  87 S3        29.95R
PARIS*         PTCLDY    72  71  99 CALM      29.97R
$$

ILZ079-100>102-290900-
SOUTHWEST ILLINOIS

CITY           SKY/WX    TMP DP  RH WIND       PRES   REMARKS
ALTON          PTCLDY    75  74  96 CALM      29.95S
BELLEVILLE     CLEAR     78  78 100 SW5       29.93R HX  82
CAHOKIA*       CLEAR     81  76  84 SW5       29.94R HX  87
SPARTA*        CLEAR     79  77  92 SW3       29.95S HX  84
$$

ILZ064>066-069>071-074>076-080>082-084>086-088>090-092>094-290900-
SOUTH-CENTRAL ILLINOIS

CITY           SKY/WX    TMP DP  RH WIND       PRES   REMARKS
CARBONDALE     CLEAR     75  73  93 S5        29.94F
CAIRO*         PTCLDY    77  72  84 S3        29.95F
EFFINGHAM*     PTCLDY    75  72  91 CALM      29.97R FOG
MARION         CLEAR     75  73  94 S6        29.95F
MT. VERNON     CLEAR     75  70  83 CALM      29.95R
CENTRALIA*     CLEAR     77  74  89 CALM      29.95R
SALEM*         PTCLDY    79  75  87 SW3       29.95R HX  84
METROPOLIS*    PTCLDY    76  74  94 CALM      29.96F
$$

ILZ067-068-072-073-078-083-087-091-290900-
SOUTHEAST ILLINOIS

CITY           SKY/WX    TMP DP  RH WIND       PRES   REMARKS
LAWRENCEVILLE  PTCLDY    75  73  93 S3        29.95S
FLORA*         PTCLDY    74  73  96 CALM      29.95R
FAIRFIELD*     PTCLDY    74  74  98 CALM      29.94R FOG
HARRISBURG*    CLEAR     74  74  99 CALM      29.95F
ROBINSON*      PTCLDY    74  73  96 CALM      29.96R
CARMI*         CLEAR     73  69  86 MISG      29.93F
$$

ABBREVIATIONS USED IN REMARKS
   TC - TEMPERATURE IN CELSIUS
  WCI - WIND CHILL INDEX
   HX - HEAT INDEX
  VSB - VISIBILITY
$$



USA.gov is the U.S. government's official web portal to all federal, state and local government web resources and services.